FW7658 Weather Reports


time (UTC)temp
C
wind
direction
speed
KPH
gust
KPH
rain 1hr
cm
rain 24hr
cm
rain mn
cm
humidity
%
barometer
mb
20260505184559 26 0 4.8 16.1 0.00 0.00 0.00 51 1017.1
20260505183053 25 188 4.8 19.3 0.00 0.00 0.00 51 1016.9
20260505181559 26 147 4.8 16.1 0.00 0.00 0.00 51 1016.7
20260505180058 26 157 6.4 14.5 0.00 0.00 0.00 50 1017.0
20260505174607 26 153 4.8 17.7 0.00 0.00 0.00 53 1016.9
20260505173056 26 212 3.2 11.3 0.00 0.00 0.00 50 1016.8
20260505171557 25 195 3.2 14.5 0.00 0.00 0.00 51 1017.1
20260505170057 26 267 3.2 16.1 0.00 0.00 0.00 53 1017.2
20260505164600 26 0 1.6 12.9 0.00 0.00 0.00 53 1017.3
20260505163054 25 215 4.8 16.1 0.00 0.00 0.00 55 1017.6
20260505161554 25 140 6.4 16.1 0.00 0.00 0.00 54 1017.6
20260505153052 25 240 3.2 9.7 0.00 0.00 0.00 60 1017.9
20260505151556 24 149 3.2 12.9 0.00 0.00 0.00 61 1017.8
20260505150105 24 197 1.6 11.3 0.00 0.00 0.00 62 1017.8
20260505130110 20 163 1.6 4.8 0.00 0.00 0.00 76 1017.6
20260505124556 18 0 0.0 0.0 0.00 0.00 0.00 83 1017.6
20260505123102 17 0 0.0 0.0 0.00 0.00 0.00 89 1017.7
20260505121556 15 0 0.0 0.0 0.00 0.00 0.00 94 1017.6
20260505120104 13 0 0.0 0.0 0.00 0.00 0.00 95 1017.5
20260505114556 12 0 0.0 0.0 0.00 0.00 0.00 95 1017.4
20260505113112 12 0 0.0 0.0 0.00 0.00 0.00 95 1017.2
20260505111556 11 0 0.0 0.0 0.00 0.00 0.00 94 1017.2
20260505110116 11 0 0.0 0.0 0.00 0.00 0.00 94 1017.1
20260505101600 11 0 0.0 0.0 0.00 0.00 0.00 94 1016.5
20260505100053 11 0 0.0 0.0 0.00 0.00 0.00 94 1016.4
20260505094618 11 0 0.0 0.0 0.00 0.00 0.00 93 1016.4
20260505093058 11 0 0.0 0.0 0.00 0.00 0.00 93 1016.3
20260505091605 11 0 0.0 0.0 0.00 0.00 0.00 93 1016.2
20260505090105 11 0 0.0 0.0 0.00 0.00 0.00 93 1016.2
20260505084559 11 0 0.0 0.0 0.00 0.00 0.00 92 1016.1
20260505083105 11 0 0.0 0.0 0.00 0.00 0.00 92 1015.9
20260505081600 12 0 0.0 0.0 0.00 0.00 0.00 92 1015.8
20260505080053 12 0 0.0 0.0 0.00 0.00 0.00 91 1015.8
20260505074552 12 0 0.0 0.0 0.00 0.00 0.00 91 1015.7
20260505073058 12 0 0.0 0.0 0.00 0.00 0.00 91 1015.7
20260505071552 12 0 0.0 0.0 0.00 0.00 0.00 91 1015.7
20260505070051 12 0 0.0 0.0 0.00 0.00 0.00 90 1015.8
20260505064554 12 0 0.0 0.0 0.00 0.00 0.00 90 1015.8
20260505063052 12 0 0.0 0.0 0.00 0.00 0.00 89 1015.9
20260505061557 12 0 0.0 0.0 0.00 0.00 0.00 89 1016.1
20260505060105 12 0 0.0 0.0 0.00 0.00 0.00 88 1016.4
20260505054557 13 0 0.0 0.0 0.00 0.00 0.00 87 1016.5
20260505053057 13 0 0.0 0.0 0.00 0.00 0.00 87 1016.6
20260505051556 13 0 0.0 0.0 0.00 0.00 0.00 86 1016.9
20260505041557 14 0 0.0 0.0 0.00 0.00 0.00 82 1016.9
20260505040103 15 0 0.0 0.0 0.00 0.00 0.00 80 1016.8
20260505034559 15 0 0.0 0.0 0.00 0.00 0.00 79 1017.0
20260505033057 15 0 0.0 0.0 0.00 0.00 0.00 77 1016.8
20260505031601 16 0 0.0 0.0 0.00 0.00 0.00 74 1017.0
20260505030100 16 0 0.0 0.0 0.00 0.00 0.00 72 1016.9
20260505024556 16 0 0.0 0.0 0.00 0.00 0.00 71 1017.0
20260505023056 17 0 0.0 1.6 0.00 0.00 0.00 69 1017.0
20260505021556 17 0 0.0 0.0 0.00 0.00 0.00 68 1016.9
20260505020053 17 0 0.0 6.4 0.00 0.00 0.00 66 1016.9
20260505014605 17 203 0.0 3.2 0.00 0.00 0.00 65 1016.8
20260505013052 17 0 0.0 3.2 0.00 0.00 0.00 64 1016.8
20260505011554 18 0 0.0 4.8 0.00 0.00 0.00 62 1016.6
20260505010052 18 0 0.0 0.0 0.00 0.00 0.00 61 1016.4
20260505004557 18 0 0.0 0.0 0.00 0.00 0.00 59 1016.5
20260505003054 19 172 0.0 4.8 0.00 0.00 0.00 57 1016.3
20260505001554 20 0 0.0 6.4 0.00 0.00 0.00 55 1016.3
20260505000057 20 0 1.6 12.9 0.00 0.00 0.00 54 1016.4
20260504234552 20 0 1.6 12.9 0.00 0.00 0.00 53 1016.3
20260504233055 21 145 1.6 17.7 0.00 0.00 0.00 52 1016.2
20260504231556 21 203 6.4 16.1 0.00 0.00 0.00 51 1016.1
20260504230055 22 198 3.2 14.5 0.00 0.00 0.00 51 1016.1
20260504224554 22 134 6.4 19.3 0.00 0.00 0.00 51 1015.9
20260504223054 22 159 4.8 19.3 0.00 0.00 0.00 51 1016.0
20260504221555 23 181 3.2 20.9 0.00 0.00 0.00 50 1016.0
20260504220056 23 163 4.8 25.7 0.00 0.00 0.00 49 1015.9
20260504214603 23 149 6.4 17.7 0.00 0.00 0.00 48 1015.8
20260504213056 23 276 6.4 16.1 0.00 0.00 0.00 47 1015.8
20260504211556 25 188 6.4 16.1 0.00 0.00 0.00 46 1015.7
20260504210105 25 212 6.4 20.9 0.00 0.00 0.00 46 1015.6
20260504204620 25 226 9.7 20.9 0.00 0.00 0.00 43 1015.5
20260504203131 26 224 4.8 20.9 0.00 0.00 0.00 45 1015.5
20260504201600 25 170 8.0 20.9 0.00 0.00 0.00 43 1015.5
20260504200057 25 222 6.4 17.7 0.00 0.00 0.00 42 1015.6
20260504194559 26 0 4.8 14.5 0.00 0.00 0.00 38 1016.0
20260504193058 27 73 3.2 14.5 0.00 0.00 0.00 39 1016.2
20260504191604 26 147 3.2 11.3 0.00 0.00 0.00 40 1016.2
20260504190058 26 209 1.6 6.4 0.00 0.00 0.00 39 1016.5